User: anonymous   Login
Location: Houston
(29.7630°N, 95.3630°W)
Time: 12:54:19
(UTC-05:00)
Language:

Saudisat 1A - Orbit

View from above orbital plane
View from above orbital plane
View from above satellite
View from above satellite

Ground track
Ground track

The orbit data is extracted from the following two-line orbital elements,

1 26546U 00057B   16207.51801541  .00000181  00000-0  34700-4 0  9994
2 26546  64.5546 277.5871 0048157 264.2699  95.2918 14.90273825857976
Epoch (UTC): 25 July 2016 12:25:56
Eccentricity: 0.0048157
inclination: 64.5546°
perigee height: 563 km
apogee height: 630 km
right ascension of ascending node: 277.5871°
argument of perigee: 264.2699°
revolutions per day: 14.90273825
mean anomaly at epoch: 95.2918°
orbit number at epoch: 85797

The dashed part of the orbit path shows where the satellite is in the earth's shadow,  

DLR